Tracking 18980 objects as of 19-Feb-2018
HD Live streaming from Space Station
objects crossing your sky now

FENGYUN 1C DEB

Track FENGYUN 1C DEB now!
10-day predictions


NORAD ID: 32223
Int'l Code: 1999-025CVV
Perigee: 830.8 km
Apogee: 914.3 km
Inclination: 99.0 °
Period: 102.3 minutes
Semi major axis: 7243 km
RCS: 0.0134 m2 (small)
Launch date: May 10, 1999
Source: People's Republic of China (PRC)
Launch site: Taiyaun Space Center, China (TSC)

Note: This is SATELLITE DEBRIS
aabbcc
Your satellite tracking list
Your tracking list is empty




NASA's NSSDC Master Catalog

Two Line Element Set (TLE):
1 32223U 99025CVV 18050.36348559 +.00000588 +00000-0 +36478-3 0  9996
2 32223 099.0181 108.0232 0057682 098.4477 323.1933 14.08241128239655
Source of the keplerian elements: AFSPC